Regional Weather Roundup
Issued by NWS

Home | Current Version | Previous Version | Text Only | Print | Product List | Glossary Off
Versions: 1 2 3 4 5 6 7 8 9 10 11 12 13 14 15 16 17 18 19 20 21 22 23 24 25 26 27 28 29 30 31 32 33 34 35 36 37 38 39 40 41 42 43 44 45 46 47 48 49 50

000
ASUS43 KOAX 221010
RWRNE

WEATHER ROUNDUP FOR NEBRASKA
NATIONAL WEATHER SERVICE OMAHA NE
400 AM CST MON DEC 22 2014

NOTES: SATELLITE DATA IS BEING USED TO AUGMENT CLOUD COVER ABOVE
       12000 FEET.
       "FAIR" INDICATES FEW OR NO CLOUDS BELOW 12,000 FEET WITH NO
       SIGNIFICANT WEATHER AND/OR OBSTRUCTIONS TO VISIBILITY.

  * THESE STATIONS DO NOT REPORT WEATHER SUCH AS RAIN...SNOW OR FOG.

NEZ001>004-019>022-054>056-221100-
NEBRASKA PANHANDLE

CITY           SKY/WX    TMP DP  RH WIND       PRES   REMARKS
SCOTTSBLUFF    CLOUDY    36  28  73 W13       29.67R WCI  27
ALLIANCE       CLOUDY    36  29  75 NW23G37   29.59S WCI  24
CHADRON        CLOUDY    38  30  73 NW30G37   29.61R WCI  26
KIMBALL        CLOUDY    32  28  85 NW12      29.65S WCI  23
SIDNEY         MOCLDY    34  26  72 NW14      29.64R WCI  25
$$

NEZ057>060-069>072-079>082-221100-
SOUTHWEST NEBRASKA

CITY           SKY/WX    TMP DP  RH WIND       PRES   REMARKS
NORTH PLATTE   CLOUDY    33  30  88 W7        29.55R WCI  27
IMPERIAL       MOCLDY    39  28  64 NW20G29   29.59R WCI  29
LEXINGTON      MOCLDY    36  33  88 NW14      29.52R WCI  27
MCCOOK         CLOUDY    36  31  82 NW9       29.56R WCI  29
OGALLALA       MOCLDY    36  31  82 NW10      29.59R WCI  29
$$

NEZ005>010-023>029-035>040-094-221100-
NORTH CENTRAL NEBRASKA

CITY           SKY/WX    TMP DP  RH WIND       PRES   REMARKS
VALENTINE      MIX PCPN  37  35  92 NW15      29.50S WCI  28
AINSWORTH      CLOUDY    37  36  95 NW14      29.48S FOG     WCI  28
BROKEN BOW     MOCLDY    38  33  82 NW15      29.50R WCI  29
O`NEILL        CLOUDY    37  36  97 W7        29.46S WCI  31
THEDFORD       CLOUDY    38  35  89 NW12G17   29.53R WCI  31
$$

NEZ041-046>049-061>064-073>077-083>087-221100-
SOUTH CENTRAL NEBRASKA

CITY           SKY/WX    TMP DP  RH WIND       PRES   REMARKS
GRAND ISLAND   CLOUDY    42  40  92 SW9       29.50F
AURORA         CLOUDY    42  42 100 S8        29.49F FOG
HASTINGS       CLOUDY    42  39  89 S6        29.49F FOG
HEBRON         DRIZZLE   43  41  93 S12       29.53F
HOLDREGE       CLOUDY    35  34  96 W6        29.50F WCI  30
KEARNEY *      CLOUDY    36  34  93 SW8       29.50S WCI  29
YORK           LGT RAIN  41  41 100 S12       29.51F
$$

NEZ011>018-030>034-042>045-221100-
NORTHEAST NEBRASKA

CITY           SKY/WX    TMP DP  RH WIND       PRES   REMARKS
NORFOLK        LGT RAIN  43  41  93 S13       29.48F FOG
ALBION         CLOUDY    41  38  91 SW7       29.49S FOG
BLAIR          LGT RAIN  43  41  93 S15G22    29.55F
COLUMBUS *     CLOUDY    43  39  87 S12       29.52F
FREMONT        RAIN      44  42  95 SE12G18   29.54F
TEKAMAH        LGT RAIN  44  42  93 S15       29.55F
WAYNE          LGT RAIN  42  40  96 S13       29.51F
$$

NEZ050>053-065>068-078-088>093-221100-
SOUTHEAST NEBRASKA

CITY           SKY/WX    TMP DP  RH WIND       PRES   REMARKS
LINCOLN        LGT RAIN  43  42  97 S12       29.55F FOG
OMAHA EPPLEY   LGT RAIN  43  42  97 S17       29.58F
BEATRICE       CLOUDY    42  41  96 S10       29.55F
FALLS CITY     LGT RAIN  42  40  92 SE12      29.60F
NEBRASKA CITY  DRIZZLE   42  42 100 S12       29.58F
PLATTSMOUTH    DRIZZLE   42  40  93 S10       29.58F
$$

NEZ044-045-051>053-067-221100-
OMAHA AREA

CITY           SKY/WX    TMP DP  RH WIND       PRES   REMARKS
OMAHA EPPLEY   LGT RAIN  43  42  97 S17       29.58F
BLAIR          LGT RAIN  43  41  93 S15G22    29.55F
FREMONT        RAIN      44  42  95 SE12G18   29.54F
MILLARD        DRIZZLE   44  42  92 SE9       29.57F
OFFUTT AFB     LGT RAIN  42  41  95 SE10      29.57F FOG
PLATTSMOUTH    DRIZZLE   42  40  93 S10       29.58F
WAHOO          LGT RAIN  43  40  91 S14       29.54F
$$


USA.gov is the U.S. government's official web portal to all federal, state and local government web resources and services.